Location: Penton Mewsey
(51.2167°N, 1.5167°W)
Time: 18:50:51
(UTC+00:00)

STARLINK-1270 - Pass Details

Date: 30 March 2020
Orbit: 378 x 381 km, 53.0° (Epoch: 02 June)

Event Time Altitude Azimuth Distance (km) Brightness Sun altitude
Rises 20:24:25 0° 260° (W) 2,280 7.6 -16.7°
Reaches altitude 10° 20:26:30 10° 262° (W) 1,421 6.5 -17.0°
Maximum altitude 20:29:40 72° 348° (NNW) 411 3.0 -17.4°
Enters shadow 20:30:31 44° 60° (ENE) 550 3.4 -17.6°
